FW7308 Weather Reports


time (UTC)temp
F
wind
direction
speed
knots
gust
knots
rain 1hr
in
rain 24hr
in
rain mn
in
humidity
%
barometer
mb
20260902192232 67 204 3.5 6.1 0.00 0.00 0.00 91 1023.1
20260902191733 66 156 4.3 7.0 0.00 0.00 0.00 93 1023.5
20260902191233 65 139 5.2 7.8 0.00 0.00 0.00 94 1023.8
20260902190731 66 151 4.3 7.0 0.00 0.00 0.00 93 1023.6
20260902190231 65 20 1.7 2.6 0.00 0.00 0.00 94 1023.8
20260902185732 65 161 2.6 4.3 0.00 0.00 0.00 93 1023.5
20260902185231 66 146 3.5 5.2 0.00 0.00 0.00 93 1023.8
20260902184730 66 42 2.6 2.6 0.00 0.00 0.00 93 1023.5
20260902184229 65 324 1.7 2.6 0.00 0.00 0.00 94 1023.8
20260902183731 65 255 2.6 2.6 0.00 0.00 0.00 95 1023.8
20260902183230 65 299 2.6 2.6 0.00 0.00 0.00 95 1023.8
20260902182729 64 352 1.7 2.6 0.00 0.00 0.00 94 1024.0
20260902182230 65 85 2.6 2.6 0.00 0.00 0.00 94 1024.0
20260902181729 65 172 4.3 6.1 0.00 0.00 0.00 93 1023.8
20260902181229 65 26 1.7 1.7 0.00 0.00 0.00 94 1023.8
20260902180728 65 182 3.5 5.2 0.00 0.00 0.00 93 1024.0
20260902180230 65 139 2.6 4.3 0.00 0.00 0.00 95 1023.8
20260902175728 65 352 0.9 2.6 0.00 0.00 0.00 94 1024.2
20260902175328 65 8 2.6 2.6 0.00 0.00 0.00 94 1023.8
20260902174229 65 151 3.5 5.2 0.00 0.00 0.00 94 1023.8
20260902173727 65 74 1.7 2.6 0.00 0.00 0.00 94 1023.8
20260902173226 65 258 2.6 2.6 0.00 0.00 0.00 95 1023.8
20260902172725 64 258 2.6 4.3 0.00 0.00 0.00 96 1023.8
20260902172225 64 164 6.1 7.0 0.00 0.00 0.00 95 1023.8
20260902171726 64 39 2.6 4.3 0.00 0.00 0.00 96 1024.2
20260902171225 64 270 2.6 2.6 0.00 0.00 0.00 96 1024.2
20260902170724 64 0 1.7 2.6 0.00 0.00 0.00 96 1024.2
20260902170224 64 89 3.5 4.3 0.00 0.00 0.00 96 1024.2
20260902164823 64 290 1.7 1.7 0.00 0.00 0.00 95 1024.2
20260902164242 64 6 1.7 1.7 0.00 0.00 0.00 95 1024.2
20260902162723 63 275 2.6 2.6 0.00 0.00 0.00 96 1024.2
20260902162221 63 342 2.6 2.6 0.00 0.00 0.00 96 1024.5
20260902161820 63 163 2.6 6.1 0.00 0.00 0.00 96 1024.3
20260902161223 63 267 1.7 2.6 0.00 0.00 0.00 96 1024.2
20260902160720 64 302 1.7 1.7 0.00 0.00 0.00 95 1024.5
20260902155719 64 196 4.3 5.2 0.00 0.00 0.00 95 1024.5
20260902155220 64 169 5.2 7.0 0.00 0.00 0.00 94 1024.5
20260902154720 64 109 3.5 4.3 0.00 0.00 0.00 95 1024.5
20260902154218 63 92 4.3 6.1 0.00 0.00 0.00 97 1024.5
20260902153722 63 153 5.2 6.1 0.00 0.00 0.00 96 1024.5
20260902153219 63 344 1.7 2.6 0.00 0.00 0.00 97 1024.9
20260902152759 63 330 0.0 0.9 0.00 0.00 0.00 97 1024.9
20260902142244 63 125 3.5 5.2 0.00 0.00 0.00 96 1025.0
20260902141744 63 200 5.2 6.1 0.00 0.00 0.00 96 1024.9
20260902141242 63 207 3.5 7.0 0.00 0.00 0.00 96 1024.9
20260902140713 63 187 4.3 5.2 0.00 0.00 0.00 94 1024.9
20260902140242 62 157 3.5 4.3 0.00 0.00 0.00 96 1024.5
20260902135240 62 338 1.7 2.6 0.00 0.00 0.00 98 1024.5
20260902134745 62 184 3.5 5.2 0.00 0.00 0.00 98 1024.5
20260902134342 62 324 0.9 1.7 0.00 0.00 0.00 99 1024.5
20260902133740 61 183 2.6 4.3 0.00 0.00 0.00 99 1024.5
20260902133239 61 284 2.6 2.6 0.00 0.00 0.00 99 1024.5
20260902132739 61 342 0.9 1.7 0.00 0.00 0.00 99 1024.5
20260902132240 61 305 0.9 0.9 0.00 0.00 0.00 99 1024.5
20260902131739 60 348 1.7 1.7 0.00 0.00 0.00 99 1024.2
20260902131239 60 12 2.6 2.6 0.00 0.00 0.00 99 1024.2
20260902130739 60 102 3.5 4.3 0.00 0.00 0.00 99 1024.2
20260902130238 60 350 2.6 2.6 0.00 0.00 0.00 99 1024.2
20260902125737 60 23 1.7 2.6 0.00 0.00 0.00 99 1024.2
20260902125236 60 299 2.6 2.6 0.00 0.00 0.00 99 1024.2
20260902124738 59 355 1.7 1.7 0.00 0.00 0.00 99 1024.2
20260902124237 60 343 0.9 1.7 0.00 0.00 0.00 99 1024.3
20260902123736 60 1 1.7 2.6 0.00 0.00 0.00 99 1024.2
20260902123235 59 307 0.9 1.7 0.00 0.00 0.00 99 1024.2
20260902122738 60 339 0.9 1.7 0.00 0.00 0.00 99 1024.2
20260902122236 60 352 0.9 0.9 0.00 0.00 0.00 99 1024.5
20260902121234 59 335 0.9 0.9 0.00 0.00 0.00 99 1024.2
20260902120735 59 0.0 0.0 0.00 0.00 0.00 99 1024.3
20260902120234 59 337 0.0 0.9 0.00 0.00 0.00 99 1024.2
20260902115834 59 358 0.9 1.7 0.00 0.00 0.00 99 1024.5
20260902115236 59 338 0.0 0.9 0.00 0.00 0.00 99 1024.3
20260902114733 59 0.0 0.0 0.00 0.00 0.00 99 1024.2
20260902114233 59 338 0.9 0.9 0.00 0.00 0.00 99 1024.5
20260902113833 59 348 0.9 1.7 0.00 0.00 0.00 99 1024.2
20260902112731 59 0.0 0.0 0.00 0.00 0.00 99 1024.5
20260902112233 59 0.0 0.0 0.00 0.00 0.00 99 1024.5
20260902111731 59 0.0 0.0 0.00 0.00 0.00 99 1024.5
20260902102226 58 0.0 0.0 0.00 0.00 0.00 99 1024.2
20260902101226 58 0.0 0.0 0.00 0.00 0.00 99 1023.8
20260902100727 58 0.0 0.0 0.00 0.00 0.00 99 1024.2
20260902100329 58 0.0 0.0 0.00 0.00 0.00 99 1024.2
20260902095826 58 0.0 0.0 0.00 0.00 0.00 99 1023.8
20260902095325 58 0.0 0.0 0.00 0.00 0.00 99 1023.8
20260902094724 58 0.0 0.0 0.00 0.00 0.00 99 1023.8
20260902094227 58 0.0 0.0 0.00 0.00 0.00 99 1023.8
20260902093727 58 0.0 0.0 0.00 0.00 0.00 99 1024.0
20260902092224 58 0.0 0.0 0.00 0.00 0.00 99 1023.8
20260902091725 58 0.0 0.0 0.00 0.00 0.00 99 1023.8
20260902091223 58 0.0 0.0 0.00 0.00 0.00 99 1023.8
20260902090722 58 0.0 0.0 0.00 0.00 0.00 99 1023.8
20260902080217 58 332 0.0 0.9 0.00 0.00 0.00 99 1023.5
20260902075717 58 342 0.9 1.7 0.00 0.00 0.00 99 1023.5
20260902075218 59 335 0.0 0.9 0.00 0.00 0.00 99 1023.5
20260902074717 59 324 0.0 0.9 0.00 0.00 0.00 99 1023.1
20260902074216 59 339 0.9 0.9 0.00 0.00 0.00 99 1023.5
20260902073745 59 0.0 0.0 0.00 0.00 0.00 99 1023.5
20260902073246 59 337 0.0 0.9 0.00 0.00 0.00 99 1023.5
20260902072745 59 336 0.0 0.9 0.00 0.00 0.00 99 1023.5
20260902072244 58 338 0.0 0.9 0.00 0.00 0.00 99 1023.5
20260902071744 58 0.0 0.0 0.00 0.00 0.00 99 1023.1
20260902071245 58 0.0 0.0 0.00 0.00 0.00 99 1023.5
20260902070744 58 0.0 0.0 0.00 0.00 0.00 99 1023.5
20260902070345 58 0.0 0.0 0.00 0.00 0.00 99 1023.5
20260902065743 59 336 0.0 0.9 0.00 0.00 0.00 99 1023.5
20260902065245 59 341 0.0 0.9 0.00 0.00 0.00 99 1023.8
20260902064844 59 0.0 0.0 0.00 0.00 0.00 99 1023.8
20260902064242 59 322 0.0 0.9 0.00 0.00 0.00 99 1023.8
20260902063741 59 0.0 0.0 0.00 0.00 0.00 99 1023.8
20260902062742 59 0.0 0.0 0.00 0.00 0.00 99 1023.8
20260902061740 59 0.0 0.0 0.00 0.00 0.00 99 1023.5
20260902061241 59 0.0 0.0 0.00 0.00 0.00 99 1023.5
20260902060240 59 0.0 0.0 0.00 0.00 0.00 99 1023.5
20260902055739 59 0.0 0.0 0.00 0.00 0.00 99 1023.1
20260902044735 59 0.0 0.0 0.00 0.00 0.00 99 1022.8
20260902044235 59 0.0 0.0 0.00 0.00 0.00 99 1022.8
20260902043734 59 0.0 0.0 0.00 0.00 0.00 99 1022.4
20260902043235 59 333 0.0 0.9 0.00 0.00 0.00 99 1022.4
20260902042735 59 0.0 0.0 0.00 0.00 0.00 99 1022.4
20260902042235 59 312 0.0 0.9 0.00 0.00 0.00 99 1022.4
20260902041733 59 0.0 0.0 0.00 0.00 0.00 99 1022.4
20260902041232 59 0.0 0.0 0.00 0.00 0.00 99 1022.1
20260902040733 59 0.0 0.0 0.00 0.00 0.00 99 1022.1
20260902040232 59 0.0 0.0 0.00 0.00 0.00 99 1022.4
20260902035733 59 0.0 0.0 0.00 0.00 0.49 99 1022.2
20260902035232 59 0.0 0.0 0.00 0.00 0.49 99 1022.4
20260902034731 59 0.0 0.0 0.00 0.00 0.49 99 1022.2
20260902034231 59 0.0 0.0 0.00 0.00 0.49 99 1022.2
20260902033731 59 0.0 0.0 0.00 0.00 0.49 99 1022.1
20260902032730 59 0.0 0.0 0.00 0.00 0.49 99 1022.2
20260902032230 59 0.0 0.0 0.00 0.00 0.49 99 1022.4
20260902031730 59 0.0 0.0 0.00 0.00 0.49 99 1022.4
20260902031228 59 0.0 0.0 0.00 0.00 0.49 99 1022.4
20260902030728 59 0.0 0.0 0.00 0.00 0.49 99 1022.1
20260902030329 59 321 0.0 0.9 0.00 0.00 0.49 99 1022.4
20260902025731 60 0.0 0.0 0.00 0.00 0.49 99 1022.4
20260902025226 60 336 0.0 0.9 0.00 0.00 0.49 99 1022.4
20260902024726 60 336 0.0 0.9 0.00 0.00 0.49 99 1022.4
20260902024330 60 336 0.0 0.9 0.00 0.00 0.49 99 1022.2
20260902023727 60 343 0.9 1.7 0.00 0.00 0.49 99 1022.1
20260902023327 60 343 0.9 1.7 0.00 0.00 0.49 99 1021.7
20260902022726 60 1 1.7 2.6 0.00 0.00 0.49 99 1021.9
20260902022227 60 345 0.9 1.7 0.00 0.00 0.49 99 1022.1
20260902021725 60 7 2.6 4.3 0.00 0.00 0.49 99 1022.1
20260902021226 60 350 0.9 1.7 0.00 0.00 0.49 99 1022.1
20260902020723 60 78 2.6 4.3 0.00 0.00 0.49 99 1022.1
20260902020225 60 146 3.5 4.3 0.00 0.00 0.49 99 1021.7
20260902015723 60 136 3.5 5.2 0.00 0.00 0.49 99 1022.1
20260902015323 60 349 1.7 1.7 0.00 0.00 0.49 99 1022.1
20260902014827 60 287 2.6 4.3 0.00 0.00 0.49 99 1022.1
20260902014223 60 349 0.9 1.7 0.00 0.00 0.49 99 1022.1
20260902013723 60 66 1.7 4.3 0.00 0.00 0.49 99 1022.2
20260902013221 60 235 2.6 4.3 0.00 0.00 0.49 99 1022.2
20260902012722 60 12 2.6 2.6 0.00 0.00 0.49 99 1022.1
20260902012222 60 357 1.7 1.7 0.00 0.00 0.49 99 1022.1
20260902011721 60 30 1.7 2.6 0.00 0.00 0.49 99 1022.1
20260902011220 61 27 2.6 4.3 0.00 0.00 0.49 99 1022.1
20260902010721 61 2 1.7 2.6 0.00 0.00 0.49 99 1022.1
20260902010220 61 328 0.9 1.7 0.00 0.00 0.49 99 1022.1
20260902005719 61 29 1.7 2.6 0.00 0.00 0.49 99 1021.7
20260902005218 61 303 2.6 2.6 0.00 0.00 0.48 99 1021.7
20260902004720 61 343 0.9 0.9 0.00 0.00 0.48 99 1022.1
20260902004320 61 325 1.7 1.7 0.00 0.00 0.48 99 1021.7
20260902003818 61 311 1.7 1.7 0.00 0.00 0.48 99 1021.7
20260902003217 61 237 3.5 4.3 0.00 0.00 0.48 99 1021.5
20260902002716 61 347 1.7 1.7 0.00 0.00 0.48 99 1021.4
20260902002220 61 306 0.9 1.7 0.00 0.00 0.48 99 1021.4
20260902001757 61 350 0.9 1.7 0.00 0.00 0.47 99 1021.2
20260901231243 62 0.0 0.0 0.00 0.00 0.47 99 1021.0
20260901230742 62 0.0 0.0 0.00 0.00 0.47 99 1021.0
20260901230242 62 313 0.9 1.7 0.00 0.00 0.47 99 1021.0
20260901225841 62 319 0.0 0.9 0.00 0.00 0.47 99 1021.0
20260901225241 62 325 0.9 0.9 0.00 0.00 0.47 99 1021.0
20260901224741 62 320 0.0 0.9 0.00 0.00 0.47 99 1021.0
20260901223239 62 329 0.9 0.9 0.00 0.00 0.47 99 1021.0
20260901222240 62 301 1.7 1.7 0.00 0.00 0.47 99 1021.2
20260901221739 62 317 0.9 1.7 0.00 0.00 0.47 99 1021.0
20260901221238 62 309 0.9 1.7 0.00 0.00 0.47 99 1021.0
20260901220240 62 0.0 0.0 0.00 0.00 0.47 99 1020.7
20260901215738 62 294 1.7 1.7 0.00 0.00 0.47 99 1020.7
20260901215237 62 327 0.9 0.9 0.00 0.00 0.46 99 1020.7
20260901214736 62 304 1.7 1.7 0.00 0.00 0.46 99 1020.7
20260901214237 62 338 0.9 0.9 0.00 0.00 0.46 99 1020.7
20260901213736 62 310 0.9 1.7 0.00 0.00 0.46 99 1020.7
20260901213235 62 332 0.0 0.9 0.00 0.00 0.46 99 1020.7
20260901212735 62 324 0.0 0.9 0.00 0.00 0.46 99 1020.7
20260901212236 62 314 0.9 1.7 0.00 0.00 0.46 99 1020.7
20260901211735 62 323 0.9 0.9 0.00 0.00 0.46 99 1020.7
20260901211234 62 305 0.9 1.7 0.00 0.00 0.46 99 1020.7
20260901210733 62 0.0 0.0 0.00 0.00 0.46 99 1020.3
20260901210233 62 341 0.9 1.7 0.00 0.00 0.46 99 1020.7
20260901205734 62 314 0.9 0.9 0.00 0.00 0.46 99 1020.7
20260901205233 62 324 0.9 0.9 0.00 0.00 0.46 99 1020.7
20260901204732 62 336 0.0 0.9 0.00 0.00 0.46 99 1020.7
20260901204232 62 304 1.7 2.6 0.00 0.00 0.46 99 1020.7
20260901203733 62 325 0.9 1.7 0.00 0.00 0.46 99 1020.7
20260901203234 62 333 0.9 0.9 0.00 0.00 0.46 99 1020.7
20260901202831 62 0.0 0.0 0.00 0.00 0.46 99 1020.3
20260901202230 62 318 0.9 1.7 0.00 0.00 0.46 99 1020.3
20260901201731 62 0.0 0.0 0.00 0.00 0.46 99 1020.3
20260901201230 62 335 0.9 0.9 0.00 0.00 0.46 99 1020.3
20260901200732 62 0.0 0.0 0.00 0.00 0.46 99 1020.3
20260901200231 62 343 1.7 2.6 0.00 0.00 0.46 99 1020.0
20260901195731 62 331 2.6 4.3 0.00 0.00 0.46 99 1020.3
20260901195229 62 313 0.0 0.9 0.00 0.00 0.46 99 1020.3
20260901194732 62 325 0.0 0.9 0.00 0.00 0.46 99 1020.3
20260901194230 61 321 0.9 1.7 0.00 0.00 0.46 99 1020.3
20260901193729 61 336 1.7 1.7 0.00 0.00 0.46 99 1020.3
20260901193228 61 284 2.6 2.6 0.00 0.00 0.46 99 1020.3
20260901192730 61 332 0.9 1.7 0.00 0.00 0.46 99 1020.3